N22318 KPDK-KHMP

Flight info

Callsign N22318
Flight time N/A
Altitude 2500
Route VFR
Aircraft C150/L-VGD/C

Departure

Time N/A
Airport DeKalb Peachtree Airport (KPDK)

Arrival

Time 2026-05-05 11:48
Airport Atlanta Speedway Airport (KHMP)
Time Latitude Longitude Altitude Speed Heading
2026-05-05 11:37 33.53120 -84.41576 2561 ft 95 kts 186°
2026-05-05 11:37 33.52448 -84.41595 2546 ft 94 kts 186°
2026-05-05 11:38 33.52227 -84.41600 2565 ft 93 kts 186°
2026-05-05 11:38 33.50678 -84.41672 2597 ft 92 kts 186°
2026-05-05 11:38 33.50028 -84.41715 2608 ft 95 kts 187°
2026-05-05 11:39 33.49370 -84.41734 2589 ft 95 kts 185°
2026-05-05 11:39 33.48703 -84.41706 2584 ft 96 kts 182°
2026-05-05 11:39 33.48032 -84.41658 2582 ft 96 kts 180°
2026-05-05 11:39 33.47814 -84.41634 2562 ft 97 kts 179°
2026-05-05 11:40 33.46945 -84.41536 2589 ft 94 kts 181°
2026-05-05 11:40 33.46289 -84.41539 2564 ft 95 kts 187°
2026-05-05 11:40 33.45633 -84.41616 2581 ft 95 kts 192°
2026-05-05 11:41 33.44991 -84.41747 2603 ft 94 kts 194°
2026-05-05 11:41 33.44341 -84.41902 2541 ft 95 kts 195°
2026-05-05 11:41 33.43697 -84.42066 2452 ft 97 kts 194°
2026-05-05 11:41 33.43029 -84.42202 2386 ft 97 kts 193°
2026-05-05 11:42 33.42370 -84.42321 2337 ft 94 kts 191°
2026-05-05 11:42 33.41717 -84.42426 2251 ft 96 kts 191°
2026-05-05 11:42 33.41059 -84.42515 2163 ft 94 kts 189°
2026-05-05 11:42 33.40399 -84.42577 2010 ft 96 kts 188°
2026-05-05 11:43 33.39738 -84.42653 1875 ft 95 kts 189°
2026-05-05 11:43 33.39064 -84.42666 1687 ft 101 kts 173°
2026-05-05 11:43 33.38408 -84.42315 1580 ft 105 kts 147°
2026-05-05 11:43 33.37833 -84.41808 1556 ft 102 kts 144°
2026-05-05 11:44 33.37266 -84.41291 1497 ft 102 kts 144°
2026-05-05 11:44 33.36707 -84.40792 1473 ft 101 kts 144°
2026-05-05 11:44 33.36143 -84.40281 1426 ft 101 kts 141°
2026-05-05 11:44 33.35830 -84.39573 1431 ft 100 kts 96°
2026-05-05 11:45 33.35867 -84.38753 1437 ft 99 kts 82°
2026-05-05 11:45 33.36070 -84.37974 1449 ft 99 kts 63°
2026-05-05 11:45 33.36411 -84.37337 1411 ft 79 kts 53°
2026-05-05 11:45 33.36702 -84.36903 1375 ft 64 kts 53°
2026-05-05 11:46 33.36971 -84.36455 1369 ft 66 kts 54°
2026-05-05 11:46 33.37240 -84.36012 1364 ft 66 kts 53°
2026-05-05 11:46 33.37512 -84.35578 1322 ft 64 kts 53°
2026-05-05 11:46 33.37771 -84.35157 1218 ft 62 kts 54°
2026-05-05 11:47 33.38013 -84.34759 1108 ft 57 kts 54°
2026-05-05 11:47 33.38241 -84.34373 1025 ft 57 kts 55°
2026-05-05 11:47 33.38478 -84.33972 927 ft 60 kts 54°
2026-05-05 11:47 33.38712 -84.33576 839 ft 53 kts 53°
2026-05-05 11:48 33.39028 -84.33037 837 ft 21 kts 55°
2026-05-05 11:48 33.39055 -84.32954 844 ft 8 kts 156°
2026-05-05 11:48 33.39020 -84.32928 844 ft 5 kts 144°
2026-05-05 11:49 33.39000 -84.32911 842 ft 0 kts 143°
2026-05-05 11:49 33.38996 -84.32907 839 ft 5 kts 144°
2026-05-05 11:49 33.38958 -84.32934 844 ft 9 kts 232°
2026-05-05 11:49 33.38927 -84.32924 844 ft 7 kts 106°
2026-05-05 11:50 33.38945 -84.32885 840 ft 1 kts 64°
2026-05-05 11:50 33.38942 -84.32872 841 ft 3 kts 134°
2026-05-05 11:50 33.38934 -84.32865 844 ft 2 kts 145°
2026-05-05 11:50 33.38932 -84.32863 844 ft 0 kts 144°